Regional Weather Roundup
Issued by NWS Goodland, KS

Home | Current Version | Previous Version | Text Only | Print | Product List | Glossary On
Versions: 1 2 3 4 5 6 7 8 9 10 11 12 13 14 15 16 17 18 19 20 21 22 23 24 25 26 27 28 29 30 31 32 33 34 35 36 37 38 39 40 41 42 43 44 45 46 47 48 49 50
000
ASUS43 KGLD 270808
RWRGLD

GOODLAND FORECAST AREA HOURLY WEATHER ROUNDUP
NATIONAL WEATHER SERVICE GOODLAND KS
200 AM MDT FRI MAY 27 2016

...OFFICIAL OBSERVATIONS...

CITY           SKY/WX    TMP DP  RH WIND       PRES   REMARKS
GOODLAND KS    CLOUDY    50  48  93 SE8       29.76F
HILL CITY KS   CLOUDY    58  56  93 SE13      29.71F
IMPERIAL NEB   PTCLDY    52  49  89 SE7       29.77R
MCCOOK NEB     CLEAR     52  49  89 SE9       29.74F
AKRON CO       RAIN      48  46  93 NW16      29.82S FOG
BURLINGTON CO  CLOUDY    50  45  83 NW8       29.77F
LIMON CO       RAIN      44  44 100 NW12      29.84F FOG
$$

...UNOFFICIAL OBSERVATIONS...

CITY           SKY/WX    TMP DP  RH WIND       PRES   REMARKS
GOVE KS          N/A     56  32  40 MISG        N/A
LENORA KS        N/A     58  32  37 MISG        N/A
TRIBUNE KS     PTCLDY    48  45  87 W9        29.78
KIT CARSON CO    N/A     48  43  83 MISG        N/A
YUMA CO          N/A     51  48  91 NW12        N/A
$$



USA.gov is the U.S. government's official web portal to all federal, state and local government web resources and services.